Date,TemperatureHighF,TemperatureAvgF,TemperatureLowF,DewpointHighF,DewpointAvgF,DewpointLowF,HumidityHigh,HumidityAvg,HumidityLow,PressureMaxIn,PressureMinIn,WindSpeedMaxMPH,WindSpeedAvgMPH,GustSpeedMaxMPH,PrecipitationSumIn
2013-9-1,91,79,69,74,71,67,95,77,50,29.85,29.76,4,1,7,0.00
2013-9-2,89,78,70,74,71,67,98,81,55,29.82,29.73,6,1,10,0.08
2013-9-3,82,76,68,73,64,57,89,67,43,29.97,29.73,9,3,14,0.00
2013-9-4,82,71,62,62,56,49,76,61,33,30.09,29.97,8,2,10,0.00
2013-9-5,81,73,66,63,59,51,78,61,48,30.13,30.02,9,2,12,0.00
2013-9-6,76,65,56,54,49,45,77,59,36,30.27,30.14,4,1,7,0.00
2013-9-7,78,67,56,65,59,53,91,75,53,30.15,29.95,6,1,9,0.00
2013-9-8,85,75,66,67,63,58,89,67,50,30.05,29.88,7,1,11,0.00
2013-9-9,78,70,62,68,59,50,88,68,59,30.20,30.06,5,1,9,0.00
2013-9-10,90,79,71,75,72,69,94,79,60,30.18,30.09,9,2,12,0.00
2013-9-11,92,82,73,76,73,70,95,76,50,30.15,30.01,5,1,10,0.00
2013-9-12,89,76,70,74,71,68,96,83,59,30.00,29.75,7,1,17,0.22
2013-9-13,76,70,61,68,58,50,88,69,41,29.94,29.71,9,3,16,0.00
2013-9-14,67,60,53,50,47,45,79,64,47,30.17,29.94,9,3,13,0.00
2013-9-15,74,63,50,59,52,46,90,69,48,30.25,30.10,6,1,10,0.00
2013-9-16,70,64,60,61,58,56,95,80,63,30.24,30.05,8,2,13,0.02
2013-9-17,68,58,50,56,46,39,87,67,36,30.44,30.25,4,1,8,0.00
2013-9-18,71,58,48,51,47,43,94,70,36,30.36,30.20,6,1,7,0.00
2013-9-19,76,64,54,59,55,51,94,75,52,30.22,30.09,6,1,8,0.00
2013-9-20,78,67,57,62,59,55,93,77,55,30.10,29.97,6,1,8,0.00
2013-9-21,73,66,61,66,62,58,98,87,68,29.98,29.70,10,1,15,1.16
2013-9-22,70,63,57,61,55,49,97,77,53,29.96,29.74,7,3,12,0.00
2013-9-23,64,58,53,49,46,44,85,68,51,30.10,29.96,7,2,12,0.00
2013-9-24,70,59,49,51,48,45,87,67,46,30.13,29.97,6,1,9,0.00
2013-9-25,73,61,51,54,49,44,89,68,36,30.00,29.89,3,0,7,0.00
2013-9-26,75,63,55,55,53,52,90,72,49,30.08,29.93,3,0,7,0.00
2013-9-27,71,63,56,61,57,53,93,81,62,30.25,30.08,3,0,9,0.00
2013-9-28,67,61,56,56,55,53,94,80,62,30.32,30.23,3,0,6,0.00
2013-9-29,72,61,51,58,55,50,97,82,58,30.23,30.07,2,0,6,0.00
2013-9-30,74,62,53,57,54,51,95,76,51,30.11,30.00,3,0,6,0.00